Change the Weather History Date:

Monday, October 24, 2011

  Actual Average Record
Temperature  
Mean Temperature 64 °F -  
Max Temperature 86 °F 68 °F 86 °F (2011)
Min Temperature 42 °F 42 °F 24 °F (2005)
Degree Days  
Heating Degree Days 1    
Growing Degree Days 14 (Base 50)    
Moisture  
Dew Point 37 °F    
Average Humidity 39    
Maximum Humidity 71    
Minimum Humidity 17    
Precipitation  
Precipitation 0.00 in - - ()
Sea Level Pressure  
Sea Level Pressure 29.98 in    
Wind  
Wind Speed 12 mph (South)    
Max Wind Speed 29 mph    
Max Gust Speed 38 mph    
Visibility 10 miles    
Events      
Averages and records for this station are not official NWS values.
T = Trace of Precipitation, MM = Missing Value Source: NWS Daily Summary

Daily Weather History Graph

Daily Weather History Graph

Search for Another Location

Airport or City:

Trip Planner

Search our weather history database for the weather conditions in past years. The results will help you decide how hot, cold, wet, or windy it might be!

Date:

Astronomy

Oct. 24, 2011 Rise Set
Actual Time 7:53 AM CDT 6:45 PM CDT
Civil Twilight 7:26 AM CDT 7:12 PM CDT
Nautical Twilight 6:55 AM CDT 7:43 PM CDT
Astronomical Twilight 6:24 AM CDT 8:14 PM CDT
Moon 5:15 AM CDT (10/24) 5:10 PM CDT (10/24)
Length of Visible Light 11h 46m
Length of Day
10h 52m
Waning Crescent, 7% of the Moon is Illuminated
Oct 24
Waning Crescent
Oct 26
New
Nov 2
First Quarter
Nov 10
Full
Nov 18
Last Quarter

Hourly Weather History & Observations

Time (CDT) Temp. Windchill Dew Point Humidity Pressure Visibility Wind Dir Wind Speed Gust Speed Precip Events Conditions
12:35 AM 46.4 °F 44.3 °F 33.8 °F 62% 30.08 in 10.0 mi SSW 4.6 mph - N/A   Clear
1:35 AM 44.6 °F - 33.8 °F 66% 30.09 in 10.0 mi Calm Calm - N/A   Clear
2:15 AM 44.6 °F 43.1 °F 33.8 °F 66% 30.09 in 10.0 mi SW 3.5 mph - N/A   Clear
2:35 AM 44.6 °F 43.1 °F 33.8 °F 66% 30.09 in 10.0 mi SW 3.5 mph - N/A   Clear
2:55 AM 44.6 °F 43.1 °F 33.8 °F 66% 30.09 in 10.0 mi SSW 3.5 mph - N/A   Clear
3:15 AM 44.6 °F 43.1 °F 33.8 °F 66% 30.08 in 10.0 mi SSW 3.5 mph - N/A   Clear
3:35 AM 44.6 °F 43.1 °F 33.8 °F 66% 30.09 in 10.0 mi SW 3.5 mph - N/A   Clear
3:55 AM 44.6 °F - 33.8 °F 66% 30.08 in 10.0 mi Calm Calm - N/A   Clear
4:15 AM 44.6 °F 42.2 °F 33.8 °F 66% 30.08 in 10.0 mi East 4.6 mph - N/A   Clear
5:15 AM 44.6 °F 39.2 °F 33.8 °F 66% 30.09 in 10.0 mi SW 10.4 mph - N/A   Clear
5:35 AM 48.2 °F - 35.6 °F 62% 30.09 in 10.0 mi SSW 8.1 mph - N/A   Clear
5:55 AM 46.4 °F 42.4 °F 35.6 °F 66% 30.10 in 10.0 mi SSW 8.1 mph - N/A   Clear
6:55 AM 46.4 °F 42.4 °F 35.6 °F 66% 30.09 in 10.0 mi SSW 8.1 mph - N/A   Clear
7:35 AM 44.6 °F 41.4 °F 33.8 °F 66% 30.08 in 10.0 mi South 5.8 mph - N/A   Clear
8:15 AM 42.8 °F 41.1 °F 33.8 °F 70% 30.09 in 10.0 mi SSW 3.5 mph - N/A   Clear
8:35 AM 44.6 °F 43.1 °F 35.6 °F 71% 30.09 in 10.0 mi SSW 3.5 mph - N/A   Clear
8:55 AM 46.4 °F 44.3 °F 37.4 °F 71% 30.08 in 10.0 mi SSE 4.6 mph - N/A   Clear
9:15 AM 53.6 °F - 37.4 °F 54% 30.09 in 10.0 mi South 5.8 mph - N/A   Clear
9:35 AM 59.0 °F - 39.2 °F 48% 30.08 in 10.0 mi South 10.4 mph - N/A   Clear
9:55 AM 64.4 °F - 41.0 °F 42% 30.08 in 10.0 mi South 10.4 mph - N/A   Clear
10:15 AM 68.0 °F - 39.2 °F 35% 30.08 in 10.0 mi South 16.1 mph - N/A   Clear
10:35 AM 69.8 °F - 37.4 °F 31% 30.07 in 10.0 mi South 21.9 mph - N/A   Clear
10:55 AM 73.4 °F - 39.2 °F 29% 30.07 in 10.0 mi South 19.6 mph 25.3 mph N/A   Clear
11:15 AM 75.2 °F - 41.0 °F 29% 30.06 in 10.0 mi South 18.4 mph - N/A   Clear
11:35 AM 75.2 °F - 41.0 °F 29% 30.06 in 10.0 mi SSW 19.6 mph 28.8 mph N/A   Clear
11:55 AM 77.0 °F - 41.0 °F 28% 30.05 in 10.0 mi SSW 16.1 mph 27.6 mph N/A   Clear
12:15 PM 78.8 °F - 42.8 °F 28% 30.04 in 10.0 mi SSW 21.9 mph 27.6 mph N/A   Clear
12:35 PM 80.6 °F - 42.8 °F 26% 30.03 in 10.0 mi SSW 19.6 mph 28.8 mph N/A   Clear
1:15 PM 82.4 °F - 42.8 °F 25% 30.00 in 10.0 mi SSW 19.6 mph 25.3 mph N/A   Clear
1:35 PM 82.4 °F - 42.8 °F 25% 29.98 in 10.0 mi South 21.9 mph 29.9 mph N/A   Clear
1:55 PM 82.4 °F - 42.8 °F 25% 29.97 in 10.0 mi SSW 21.9 mph 28.8 mph N/A   Clear
2:15 PM 84.2 °F - 41.0 °F 22% 29.95 in 10.0 mi SSW 21.9 mph 29.9 mph N/A   Clear
2:35 PM 84.2 °F - 41.0 °F 22% 29.94 in 10.0 mi SSW 23.0 mph 32.2 mph N/A   Clear
2:55 PM 84.2 °F - 41.0 °F 22% 29.93 in 10.0 mi SSW 21.9 mph 34.5 mph N/A   Clear
3:15 PM 84.2 °F - 41.0 °F 22% 29.91 in 10.0 mi South 25.3 mph 31.1 mph N/A   Clear
3:35 PM 84.2 °F - 39.2 °F 20% 29.91 in 10.0 mi SSW 23.0 mph 33.4 mph N/A   Clear
3:55 PM 86.0 °F - 39.2 °F 19% 29.90 in 10.0 mi South 21.9 mph 33.4 mph N/A   Clear
4:15 PM 86.0 °F - 39.2 °F 19% 29.89 in 10.0 mi South 28.8 mph 38.0 mph N/A   Clear
4:35 PM 86.0 °F - 37.4 °F 18% 29.88 in 10.0 mi SSW 27.6 mph 38.0 mph N/A   Clear
4:55 PM 84.2 °F - 37.4 °F 19% 29.88 in 10.0 mi SSW 26.5 mph 34.5 mph N/A   Clear
5:15 PM 84.2 °F - 35.6 °F 18% 29.88 in 10.0 mi SSW 21.9 mph 34.5 mph N/A   Clear
5:35 PM 84.2 °F - 35.6 °F 18% 29.87 in 10.0 mi SSW 25.3 mph 36.8 mph N/A   Clear
5:55 PM 82.4 °F - 35.6 °F 19% 29.87 in 10.0 mi South 21.9 mph 32.2 mph N/A   Clear
6:15 PM 82.4 °F - 33.8 °F 17% 29.87 in 10.0 mi South 20.7 mph 33.4 mph N/A   Clear
6:35 PM 80.6 °F - 33.8 °F 18% 29.87 in 10.0 mi South 19.6 mph 26.5 mph N/A   Clear
7:15 PM 75.2 °F - 33.8 °F 22% 29.87 in 10.0 mi South 19.6 mph 25.3 mph N/A   Clear
7:35 PM 75.2 °F - 33.8 °F 22% 29.87 in 10.0 mi South 20.7 mph 28.8 mph N/A   Clear
7:55 PM 75.2 °F - 33.8 °F 22% 29.87 in 10.0 mi South 19.6 mph 25.3 mph N/A   Clear
8:15 PM 73.4 °F - 35.6 °F 25% 29.87 in 10.0 mi South 19.6 mph - N/A   Clear
8:35 PM 73.4 °F - 37.4 °F 27% 29.86 in 10.0 mi South 23.0 mph 29.9 mph N/A   Clear
8:55 PM 73.4 °F - 37.4 °F 27% 29.86 in 10.0 mi South 24.2 mph 32.2 mph N/A   Clear
9:15 PM 71.6 °F - 37.4 °F 29% 29.86 in 10.0 mi South 25.3 mph 31.1 mph N/A   Clear
9:35 PM 71.6 °F - 37.4 °F 29% 29.85 in 10.0 mi South 27.6 mph 34.5 mph N/A   Clear
9:55 PM 71.6 °F - 39.2 °F 31% 29.85 in 10.0 mi South 27.6 mph 35.7 mph N/A   Clear
10:35 PM 69.8 °F - 39.2 °F 33% 29.85 in 10.0 mi South 26.5 mph 35.7 mph N/A   Clear
11:15 PM 68.0 °F - 41.0 °F 37% 29.84 in 10.0 mi South 27.6 mph 31.1 mph N/A   Clear
11:35 PM 66.2 °F - 41.0 °F 40% 29.83 in 10.0 mi South 27.6 mph 34.5 mph N/A   Clear
11:55 PM 66.2 °F - 41.0 °F 40% 29.83 in 10.0 mi South 25.3 mph 32.2 mph N/A   Clear